Location: Ch�risy
(50.2331°N, 2.9131°E)
Time: 00:56:25
(UTC+00:00)

Cosmos 1536 Rocket - Pass Details

Date: 17 January 2021
Orbit: 605 x 632 km, 82.5° (Epoch: 28 February)

Event Time Altitude Azimuth Distance (km) Brightness Sun altitude
Rises 17:03:01 0° 180° (S) 2,867 7.3 -7.3°
Reaches altitude 10° 17:05:13 10° 177° (S) 1,971 6.4 -7.6°
Maximum altitude 17:09:33 65° 96° (E) 684 3.6 -8.2°
Drops below altitude 10° 17:13:57 10° 15° (NNE) 2,005 5.8 -8.9°
Sets 17:16:12 0° 13° (NNE) 2,921 6.7 -9.2°
